IST,Max TemperatureF,Mean TemperatureF,Min TemperatureF,Max Dew PointF,MeanDew PointF,Min DewpointF,Max Humidity, Mean Humidity, Min Humidity, Max Sea Level PressureIn, Mean Sea Level PressureIn, Min Sea Level PressureIn, Max VisibilityMiles, Mean VisibilityMiles, Min VisibilityMiles, Max Wind SpeedMPH, Mean Wind SpeedMPH, Max Gust SpeedMPH,PrecipitationIn, CloudCover, Events, WindDirDegrees
2013-3-1,73,58,44,61,56,45,100,86,69,30.12,30.06,30.02,5,3,2,15,7,,0.00,3,,288
2013-3-2,76,60,44,61,53,46,100,78,48,30.06,30.03,29.98,4,3,1,13,3,,0.00,,,285
2013-3-3,79,62,46,64,56,48,100,81,47,30.06,30.02,29.94,4,2,0,9,1,,0.00,2,Fog,296
2013-3-4,80,65,50,68,59,54,100,84,48,30.04,30.00,29.95,4,2,1,7,1,,0.00,3,,240
2013-3-5,80,64,49,68,59,50,100,78,43,30.12,30.05,30.01,4,2,0,7,1,,0.00,2,Fog,303
2013-3-6,83,66,49,68,59,50,100,80,41,30.09,30.02,29.95,4,2,0,9,2,,0.00,2,Fog,297
2013-3-7,84,67,50,66,61,46,100,74,44,30.04,30.00,29.92,4,2,0,8,1,,0.00,,Fog,290
2013-3-8,85,68,52,66,62,54,100,75,47,30.06,29.98,29.91,3,2,0,8,1,,0.00,,Fog,201
2013-3-9,82,68,54,68,63,55,100,78,49,29.95,29.83,29.73,3,1,0,8,2,,0.00,5,Fog,117
2013-3-10,85,71,57,68,63,57,100,78,44,29.89,29.79,29.71,4,2,0,8,2,,0.00,2,Fog,86
2013-3-11,82,69,56,66,61,57,100,72,48,29.95,29.89,29.86,3,2,1,7,1,,0.00,3,Rain,312
2013-3-12,79,66,54,65,60,54,100,80,49,29.95,29.90,29.86,3,2,0,7,1,,0.00,4,Fog,290
2013-3-13,77,66,55,64,59,18,100,79,18,29.95,29.90,29.83,3,2,0,9,2,,0.00,5,Fog,269
2013-3-14,79,68,56,63,60,55,100,76,44,30.04,29.96,29.88,5,3,0,17,5,,0.00,4,Fog-Rain-Thunderstorm,87
2013-3-15,76,63,50,61,56,48,100,76,52,30.12,30.07,30.04,4,3,1,10,3,,0.00,4,,310
2013-3-16,78,64,51,63,57,52,100,75,42,30.09,30.04,29.98,4,2,1,5,1,,0.00,2,,255
2013-3-17,79,66,52,61,58,55,100,77,36,30.09,30.04,29.97,6,2,1,12,2,,0.00,3,,292
2013-3-18,82,68,55,63,59,55,100,67,36,29.98,29.86,29.78,4,3,1,14,4,,0.00,3,,286
2013-3-19,83,69,55,64,60,55,100,70,39,29.86,29.81,29.75,4,2,1,10,2,,0.00,4,,293
2013-3-20,86,73,60,65,63,59,100,71,44,29.92,29.88,29.80,4,3,1,88,4,,0.00,4,,291
2013-3-21,82,69,56,64,61,57,100,76,51,29.95,29.87,29.82,5,3,1,14,3,,0.00,3,,286
2013-3-22,84,70,55,64,60,55,100,74,39,29.80,29.74,29.65,4,3,2,8,2,,0.00,4,,276
2013-3-23,85,72,58,81,63,59,100,72,47,30.09,29.77,29.68,3,2,1,43,4,,0.08,6,Rain-Thunderstorm,115
2013-3-24,83,71,59,64,62,59,100,75,50,29.98,29.91,29.85,5,3,2,14,7,,0.00,4,Rain-Thunderstorm,116
2013-3-25,81,66,52,61,58,53,100,73,43,29.98,29.92,29.83,5,3,2,10,4,,0.00,3,,294
2013-3-26,80,66,53,63,59,53,100,71,43,29.86,29.80,29.59,4,3,1,9,2,16,0.00,4,,288
2013-3-27,84,72,59,70,64,57,100,78,51,29.86,29.82,29.76,4,3,2,46,2,,0.00,4,,300
2013-3-28,78,68,57,68,64,57,100,89,55,29.95,29.88,29.82,4,2,1,16,3,,0.01,5,Rain,194
2013-3-29,82,69,56,66,60,54,94,72,49,29.92,29.86,29.56,4,3,2,7,2,,0.00,5,,282
2013-3-30,85,70,56,68,63,57,100,74,48,29.86,29.81,29.73,4,3,1,9,1,,0.00,2,,267
2013-3-31,87,73,59,68,61,57,100,67,37,29.86,29.80,29.77,5,2,1,12,2,,0.00,1,,279